EW3727 Weather Reports


Display with metric or nautical units.
time (UTC)temp
F
wind
direction
speed
MPH
gust
MPH
rain 1hr
in
rain 24hr
in
rain mn
in
humidity
%
barometer
mb
20200331103405 45 62 4.0 9.0 0.00 0.00 0.00 75 1029.5
20200331103011 46 64 4.0 10.0 0.00 0.00 0.00 74 1029.5
20200331102511 46 65 4.0 10.0 0.00 0.00 0.00 74 1029.4
20200331102306 46 62 4.0 10.0 0.00 0.00 0.00 74 1029.4
20200331102205 46 62 4.0 10.0 0.00 0.00 0.00 74 1029.5
20200331102105 46 62 4.0 10.0 0.00 0.00 0.00 74 1029.5
20200331102011 46 60 4.0 10.0 0.00 0.00 0.00 75 1029.5
20200331101905 46 60 4.0 10.0 0.00 0.00 0.00 75 1029.5
20200331101705 46 58 4.0 10.0 0.00 0.00 0.00 75 1029.5
20200331101605 46 55 4.0 10.0 0.00 0.00 0.00 75 1029.5
20200331101405 46 54 4.0 10.0 0.00 0.00 0.00 74 1029.5
20200331101305 46 57 4.0 10.0 0.00 0.00 0.00 74 1029.5
20200331101204 46 58 3.0 10.0 0.00 0.00 0.00 74 1029.5
20200331101105 46 58 3.0 10.0 0.00 0.00 0.00 75 1029.5
20200331100905 46 55 3.0 10.0 0.00 0.00 0.00 75 1029.6
20200331100605 46 48 3.0 10.0 0.00 0.00 0.00 75 1029.6
20200331100511 45 49 3.0 10.0 0.00 0.00 0.00 75 1029.6
20200331100305 45 42 4.0 10.0 0.00 0.00 0.00 75 1029.6
20200331100011 45 31 4.0 10.0 0.00 0.00 0.00 76 1029.5
20200331095905 45 39 4.0 7.0 0.00 0.00 0.00 76 1029.6
20200331095805 45 45 4.0 11.0 0.00 0.00 0.00 76 1029.7
20200331095605 45 51 4.0 11.0 0.00 0.00 0.00 76 1029.6
20200331094805 45 48 4.0 9.0 0.00 0.00 0.00 78 1029.7
20200331094705 45 49 4.0 9.0 0.00 0.00 0.00 78 1029.7
20200331094605 45 51 3.0 9.0 0.00 0.00 0.00 78 1029.8
20200331094405 45 51 3.0 9.0 0.00 0.00 0.00 78 1029.8
20200331094105 45 52 3.0 9.0 0.00 0.00 0.00 78 1029.8
20200331093705 45 50 3.0 8.0 0.00 0.00 0.00 79 1029.9
20200331093605 45 44 3.0 8.0 0.00 0.00 0.00 79 1029.9
20200331092905 45 12 3.0 8.0 0.00 0.00 0.00 79 1029.9
20200331092705 45 22 3.0 8.0 0.00 0.00 0.00 79 1030.0
20200331092205 45 51 3.0 9.0 0.00 0.00 0.00 79 1029.9
20200331092011 45 53 4.0 9.0 0.00 0.00 0.00 79 1029.9
20200331091805 45 44 4.0 9.0 0.00 0.00 0.00 79 1030.0
20200331091707 45 41 4.0 9.0 0.00 0.00 0.00 79 1030.0
20200331091406 45 47 4.0 9.0 0.00 0.00 0.00 79 1029.9
20200331091105 45 44 4.0 9.0 0.00 0.00 0.00 80 1030.0
20200331090905 44 48 4.0 9.0 0.00 0.00 0.00 79 1030.0
20200331090805 44 49 4.0 9.0 0.00 0.00 0.00 79 1030.0
20200331090705 44 51 4.0 9.0 0.00 0.00 0.00 79 1029.9
20200331090406 44 49 3.0 9.0 0.00 0.00 0.00 79 1030.0
20200331090205 44 52 3.0 9.0 0.00 0.00 0.00 79 1030.0
20200331090104 44 57 3.0 9.0 0.00 0.00 0.00 79 1030.0
20200331085605 44 44 3.0 7.0 0.00 0.00 0.00 80 1029.9
20200331085512 44 43 3.0 7.0 0.00 0.00 0.00 80 1030.0
20200331085405 44 37 3.0 7.0 0.00 0.00 0.00 80 1030.0
20200331084805 44 54 3.0 8.0 0.00 0.00 0.00 81 1030.1
20200331084705 44 58 2.0 8.0 0.00 0.00 0.00 81 1030.1
20200331084604 44 59 2.0 8.0 0.00 0.00 0.00 81 1030.1
20200331084511 44 60 2.0 8.0 0.00 0.00 0.00 81 1030.1
20200331084205 44 62 2.0 8.0 0.00 0.00 0.00 81 1030.1
20200331084105 44 60 2.0 7.0 0.00 0.00 0.00 82 1030.1
20200331083905 44 47 3.0 5.0 0.00 0.00 0.00 83 1030.1
20200331083805 44 48 3.0 5.0 0.00 0.00 0.00 83 1030.1
20200331083605 44 52 3.0 5.0 0.00 0.00 0.00 83 1030.1
20200331083406 44 49 3.0 5.0 0.00 0.00 0.00 83 1030.1
20200331083305 44 49 3.0 5.0 0.00 0.00 0.00 83 1030.1
20200331083105 44 50 3.0 6.0 0.00 0.00 0.00 83 1030.2
20200331082805 44 58 3.0 6.0 0.00 0.00 0.00 83 1030.1
20200331082705 44 55 3.0 6.0 0.00 0.00 0.00 83 1030.1
20200331082605 44 57 3.0 6.0 0.00 0.00 0.00 83 1030.1
20200331082405 44 58 3.0 6.0 0.00 0.00 0.00 84 1030.1
20200331082305 44 60 3.0 6.0 0.00 0.00 0.00 84 1030.2
20200331082105 44 61 3.0 7.0 0.00 0.00 0.00 85 1030.2
20200331081905 44 59 2.0 7.0 0.00 0.00 0.00 86 1030.2
20200331081805 44 56 2.0 7.0 0.00 0.00 0.00 86 1030.2
20200331081605 43 49 2.0 7.0 0.00 0.00 0.00 87 1030.2
20200331081513 43 47 2.0 7.0 0.00 0.00 0.00 87 1030.2
20200331081306 43 44 2.0 7.0 0.00 0.00 0.00 87 1030.2
20200331081205 43 39 2.0 7.0 0.00 0.00 0.00 87 1030.2
20200331081105 43 29 2.0 5.0 0.00 0.00 0.00 87 1030.2
20200331081013 43 24 2.0 5.0 0.00 0.00 0.00 87 1030.2
20200331080706 43 31 2.0 5.0 0.00 0.00 0.00 88 1030.2
20200331080513 43 40 2.0 7.0 0.00 0.00 0.00 88 1030.1
20200331080305 43 35 2.0 7.0 0.00 0.00 0.00 88 1030.2
20200331080205 43 42 2.0 7.0 0.00 0.00 0.00 88 1030.2
20200331080011 43 43 2.0 7.0 0.00 0.00 0.00 89 1030.2
20200331075905 43 43 2.0 7.0 0.00 0.00 0.00 89 1030.2
20200331075805 43 40 2.0 7.0 0.00 0.00 0.00 89 1030.2
20200331075708 43 40 2.0 7.0 0.00 0.00 0.00 89 1030.2
20200331075605 43 29 2.0 5.0 0.00 0.00 0.00 89 1030.3
20200331075512 42 31 2.0 6.0 0.00 0.00 0.00 89 1030.3
20200331075305 42 36 2.0 6.0 0.00 0.00 0.00 89 1030.3
20200331075105 42 28 2.0 6.0 0.00 0.00 0.00 90 1030.3
20200331075016 42 30 2.0 6.0 0.00 0.00 0.00 90 1030.3
20200331074805 42 33 1.0 6.0 0.00 0.00 0.00 90 1030.3
20200331074706 42 32 1.0 6.0 0.00 0.00 0.00 90 1030.3
20200331074605 42 31 1.0 6.0 0.00 0.00 0.00 90 1030.2
20200331074405 42 27 1.0 5.0 0.00 0.00 0.00 90 1030.2
20200331074305 42 24 1.0 5.0 0.00 0.00 0.00 90 1030.2
20200331074205 42 24 1.0 4.0 0.00 0.00 0.00 90 1030.2
20200331074105 42 29 1.0 4.0 0.00 0.00 0.00 90 1030.2
20200331074012 42 28 1.0 4.0 0.00 0.00 0.00 90 1030.2
20200331073512 42 27 1.0 4.0 0.00 0.00 0.00 90 1030.3
20200331073405 42 27 1.0 4.0 0.00 0.00 0.00 90 1030.3
20200331073205 42 20 2.0 4.0 0.00 0.00 0.00 91 1030.2
20200331073106 42 8 2.0 4.0 0.00 0.00 0.00 91 1030.2
20200331073013 42 6 2.0 4.0 0.00 0.00 0.00 91 1030.3
20200331072905 42 357 2.0 4.0 0.00 0.00 0.00 91 1030.2
20200331072805 42 355 3.0 4.0 0.00 0.00 0.00 91 1030.2
20200331072705 42 351 3.0 4.0 0.00 0.00 0.00 91 1030.2
20200331072605 42 352 3.0 4.0 0.00 0.00 0.00 91 1030.2
20200331072205 41 341 3.0 6.0 0.00 0.00 0.00 91 1030.2
20200331072105 41 339 3.0 6.0 0.00 0.00 0.00 91 1030.2
20200331072013 41 337 3.0 6.0 0.00 0.00 0.00 91 1030.2
20200331071905 41 335 3.0 6.0 0.00 0.00 0.00 91 1030.2
20200331071805 41 333 3.0 6.0 0.00 0.00 0.00 91 1030.2
20200331071705 41 333 2.0 6.0 0.00 0.00 0.00 91 1030.2
20200331071511 41 330 2.0 6.0 0.00 0.00 0.00 91 1030.2
20200331071405 41 330 2.0 6.0 0.00 0.00 0.00 92 1030.2
20200331071305 41 330 2.0 6.0 0.00 0.00 0.00 92 1030.2
20200331071105 41 329 2.0 6.0 0.00 0.00 0.00 92 1030.1
20200331070905 41 333 2.0 6.0 0.00 0.00 0.00 92 1030.1
20200331070805 41 335 2.0 6.0 0.00 0.00 0.00 92 1030.1
20200331070513 41 336 2.0 6.0 0.00 0.00 0.00 92 1030.2
20200331070306 41 334 2.0 6.0 0.00 0.00 0.00 92 1030.2
20200331070205 41 334 2.0 6.0 0.00 0.00 0.00 92 1030.2
20200331070105 41 332 2.0 6.0 0.00 0.00 0.00 92 1030.2
20200331065905 41 331 2.0 6.0 0.00 0.00 0.00 92 1030.2
20200331065605 41 331 2.0 6.0 0.00 0.00 0.00 92 1030.2
20200331065512 41 332 2.0 4.0 0.00 0.00 0.00 92 1030.2
20200331065105 41 333 2.0 4.0 0.00 0.00 0.00 92 1030.2
20200331064905 41 330 2.0 4.0 0.00 0.00 0.00 92 1030.2
20200331064706 41 329 2.0 4.0 0.00 0.00 0.00 92 1030.2
20200331064605 41 330 1.0 4.0 0.00 0.00 0.00 92 1030.2
20200331064512 41 331 1.0 4.0 0.00 0.00 0.00 92 1030.1
20200331064405 41 332 1.0 4.0 0.00 0.00 0.00 92 1030.1
20200331064206 41 334 1.0 4.0 0.00 0.00 0.00 92 1030.1
20200331063905 41 336 1.0 4.0 0.00 0.00 0.00 92 1030.1
20200331063805 41 334 1.0 4.0 0.00 0.00 0.00 92 1030.1
20200331063605 41 330 1.0 4.0 0.00 0.00 0.00 92 1030.1
20200331063105 41 319 0.0 3.0 0.00 0.00 0.00 92 1030.0
20200331062905 41 318 0.0 2.0 0.00 0.00 0.00 92 1030.0
20200331062805 41 318 0.0 2.0 0.00 0.00 0.00 92 1030.0
20200331062512 41 317 1.0 2.0 0.00 0.00 0.00 92 1030.0
20200331062405 41 317 1.0 2.0 0.00 0.00 0.00 92 1030.0
20200331062314 40 317 1.0 2.0 0.00 0.00 0.00 92 1030.0
20200331062205 40 317 1.0 2.0 0.00 0.00 0.00 92 1030.0
20200331062105 40 317 1.0 2.0 0.00 0.00 0.00 92 1029.9
20200331062013 40 320 1.0 2.0 0.00 0.00 0.00 91 1030.0
20200331061805 40 322 1.0 3.0 0.00 0.00 0.00 91 1029.9
20200331061706 40 322 1.0 3.0 0.00 0.00 0.00 91 1029.9
20200331061513 41 322 1.0 3.0 0.00 0.00 0.00 91 1029.9
20200331061305 41 323 1.0 3.0 0.00 0.00 0.00 91 1029.8
20200331061205 41 325 1.0 3.0 0.00 0.00 0.00 92 1029.9
20200331061105 41 325 1.0 3.0 0.00 0.00 0.00 92 1029.9
20200331061012 41 325 1.0 3.0 0.00 0.00 0.00 92 1029.9
20200331060805 41 329 1.0 3.0 0.00 0.00 0.00 91 1029.9
20200331060405 41 345 1.0 3.0 0.00 0.00 0.00 91 1029.9
20200331060106 41 351 1.0 3.0 0.00 0.00 0.00 91 1029.9
20200331060012 41 349 1.0 3.0 0.00 0.00 0.00 91 1029.9
20200331055905 41 350 1.0 2.0 0.00 0.00 0.00 91 1029.9
20200331055512 41 333 0.0 3.0 0.00 0.00 0.00 91 1029.9
20200331055205 41 333 0.0 3.0 0.00 0.00 0.00 91 1029.9
20200331055013 41 0 0.0 3.0 0.00 0.00 0.00 91 1029.9
20200331054805 41 0 0.0 3.0 0.00 0.00 0.00 91 1029.8
20200331054705 41 0 0.0 2.0 0.00 0.00 0.00 91 1029.8
20200331054512 41 333 0.0 2.0 0.00 0.00 0.00 91 1029.8
20200331054405 41 333 0.0 2.0 0.00 0.00 0.00 91 1029.9
20200331054013 41 332 1.0 2.0 0.00 0.00 0.00 91 1029.8
20200331053905 41 332 1.0 2.0 0.00 0.00 0.00 91 1029.8
20200331053406 41 343 1.0 3.0 0.00 0.00 0.00 91 1029.8
20200331053206 41 346 1.0 3.0 0.00 0.00 0.00 91 1029.8
20200331053105 41 350 1.0 3.0 0.00 0.00 0.00 91 1029.7
20200331052805 41 19 1.0 3.0 0.00 0.00 0.00 91 1029.7
20200331052605 41 47 2.0 3.0 0.00 0.00 0.00 91 1029.7
20200331052513 41 45 2.0 4.0 0.00 0.00 0.00 91 1029.7
20200331052305 41 53 2.0 4.0 0.00 0.00 0.00 91 1029.7
20200331051905 41 51 2.0 4.0 0.00 0.00 0.00 91 1029.7
20200331051805 41 53 2.0 4.0 0.00 0.00 0.00 91 1029.7
20200331051706 41 52 2.0 4.0 0.00 0.00 0.00 91 1029.7
20200331051512 41 55 2.0 4.0 0.00 0.00 0.00 91 1029.7
20200331051205 41 57 2.0 8.0 0.00 0.00 0.00 91 1029.8
20200331050805 40 53 2.0 8.0 0.00 0.00 0.00 91 1029.7
20200331050605 40 50 1.0 8.0 0.00 0.00 0.00 91 1029.7
20200331050405 40 46 1.0 8.0 0.00 0.00 0.00 91 1029.7
20200331050305 40 35 1.0 8.0 0.00 0.00 0.00 91 1029.7
20200331050105 40 14 1.0 3.0 0.00 0.00 0.00 91 1029.7
20200331045512 40 333 1.0 3.0 0.00 0.00 0.00 91 1029.7
20200331045305 40 334 1.0 3.0 0.00 0.00 0.00 91 1029.6
20200331045206 40 335 1.0 3.0 0.00 0.00 0.00 91 1029.6
20200331044605 40 324 1.0 3.0 0.00 0.00 0.00 91 1029.5
20200331044512 40 324 1.0 3.0 0.00 0.00 0.00 91 1029.5
20200331044305 40 325 1.0 3.0 0.00 0.00 0.00 91 1029.5
20200331044105 40 325 1.0 3.0 0.00 0.00 0.00 90 1029.5
20200331044013 40 325 1.0 3.0 0.00 0.00 0.00 90 1029.5
20200331043905 40 326 2.0 3.0 0.00 0.00 0.00 90 1029.4
20200331043705 40 327 2.0 3.0 0.00 0.00 0.00 90 1029.4
20200331043405 40 329 2.0 4.0 0.00 0.00 0.00 90 1029.4
20200331043305 40 330 2.0 4.0 0.00 0.00 0.00 90 1029.4
20200331043205 40 331 2.0 4.0 0.00 0.00 0.00 90 1029.4
20200331043012 40 332 2.0 4.0 0.00 0.00 0.00 90 1029.4
20200331042705 40 333 2.0 4.0 0.00 0.00 0.00 90 1029.3
20200331042306 40 334 2.0 5.0 0.00 0.00 0.00 90 1029.3
20200331042205 40 332 2.0 5.0 0.00 0.00 0.00 90 1029.3
20200331042012 40 331 2.0 5.0 0.00 0.00 0.00 90 1029.3
20200331041905 40 330 2.0 5.0 0.00 0.00 0.00 90 1029.3
20200331041606 40 330 2.0 5.0 0.00 0.00 0.00 90 1029.4
20200331041513 40 329 2.0 5.0 0.00 0.00 0.00 90 1029.3
20200331041405 40 329 2.0 5.0 0.00 0.00 0.00 90 1029.3
20200331041012 40 329 2.0 5.0 0.00 0.00 0.00 90 1029.3
20200331040405 40 330 2.0 5.0 0.00 0.00 0.00 90 1029.3
20200331040305 40 330 2.0 5.0 0.00 0.00 0.00 90 1029.3
20200331040205 40 330 2.0 5.0 0.00 0.00 0.00 90 1029.2
20200331040013 40 332 2.0 5.0 0.00 0.00 0.00 90 1029.2
20200331035605 40 333 2.0 7.0 0.00 0.00 0.00 90 1029.2
20200331035305 40 335 2.0 7.0 0.00 0.00 0.00 90 1029.2
20200331035105 40 334 2.0 7.0 0.00 0.00 0.00 90 1029.1
20200331035013 40 333 2.0 7.0 0.00 0.00 0.00 90 1029.1
20200331034805 40 332 2.0 7.0 0.00 0.00 0.00 89 1029.2
20200331034513 40 331 2.0 4.0 0.00 0.00 0.00 89 1029.2
20200331034405 40 330 2.0 4.0 0.00 0.00 0.00 89 1029.2
20200331034305 40 329 2.0 4.0 0.00 0.00 0.00 89 1029.2
20200331034205 40 327 2.0 4.0 0.00 0.00 0.00 89 1029.2
20200331034014 40 325 2.0 4.0 0.00 0.00 0.00 89 1029.2
20200331033513 40 323 1.0 4.0 0.00 0.00 0.00 89 1029.2
20200331033406 40 323 1.0 4.0 0.00 0.00 0.00 89 1029.2
20200331033305 40 322 1.0 4.0 0.00 0.00 0.00 89 1029.3
20200331033206 40 323 1.0 4.0 0.00 0.00 0.00 89 1029.3
20200331032205 40 316 2.0 3.0 0.00 0.00 0.00 89 1029.3
20200331032105 40 317 2.0 3.0 0.00 0.00 0.00 89 1029.3
20200331032013 40 318 2.0 3.0 0.00 0.00 0.00 89 1029.3
20200331031705 40 324 2.0 3.0 0.00 0.00 0.00 88 1029.3
20200331031605 40 324 2.0 3.0 0.00 0.00 0.00 88 1029.3
20200331031405 40 325 2.0 3.0 0.00 0.00 0.00 88 1029.2
20200331031305 40 324 2.0 3.0 0.00 0.00 0.00 88 1029.2
20200331031205 40 324 2.0 4.0 0.00 0.00 0.00 88 1029.2
20200331031013 40 325 2.0 4.0 0.00 0.00 0.00 88 1029.2
20200331030805 40 324 2.0 4.0 0.00 0.00 0.00 88 1029.3
20200331030705 40 323 2.0 4.0 0.00 0.00 0.00 88 1029.3
20200331030205 40 323 2.0 3.0 0.00 0.00 0.00 88 1029.3
20200331030105 40 320 2.0 3.0 0.00 0.00 0.00 88 1029.3
20200331030013 40 319 2.0 3.0 0.00 0.00 0.00 88 1029.3
20200331025905 40 317 2.0 4.0 0.00 0.00 0.00 88 1029.3
20200331025512 40 313 2.0 4.0 0.00 0.00 0.00 88 1029.3
20200331025306 40 314 2.0 4.0 0.00 0.00 0.00 87 1029.3
20200331025205 40 316 2.0 4.0 0.00 0.00 0.00 87 1029.3
20200331025012 40 319 1.0 4.0 0.00 0.00 0.00 87 1029.3
20200331024605 40 324 1.0 3.0 0.00 0.00 0.00 87 1029.3
20200331024512 40 325 0.0 3.0 0.00 0.00 0.00 87 1029.3
20200331024305 40 325 0.0 3.0 0.00 0.00 0.00 86 1029.3
20200331024105 40 326 0.0 3.0 0.00 0.00 0.00 86 1029.3
20200331024013 40 0 0.0 3.0 0.00 0.00 0.00 86 1029.3
20200331023806 40 0 0.0 0.0 0.00 0.00 0.00 86 1029.3
20200331023705 40 0 0.0 0.0 0.00 0.00 0.00 86 1029.3
20200331023405 40 327 1.0 1.0 0.00 0.00 0.00 86 1029.3
20200331023206 40 326 1.0 2.0 0.00 0.00 0.00 86 1029.3
20200331023014 40 326 1.0 2.0 0.00 0.00 0.00 86 1029.3
20200331022806 40 327 1.0 3.0 0.00 0.00 0.00 86 1029.2
20200331022605 40 325 1.0 3.0 0.00 0.00 0.00 86 1029.2
20200331022405 40 323 1.0 3.0 0.00 0.00 0.00 86 1029.3
20200331022305 40 322 1.0 3.0 0.00 0.00 0.00 86 1029.3
20200331022012 40 315 1.0 3.0 0.00 0.00 0.00 85 1029.3
20200331021805 40 309 1.0 3.0 0.00 0.00 0.00 85 1029.3
20200331021705 40 308 1.0 3.0 0.00 0.00 0.00 85 1029.3
20200331021605 40 308 1.0 3.0 0.00 0.00 0.00 85 1029.3
20200331021405 40 308 1.0 3.0 0.00 0.00 0.00 85 1029.2
20200331021105 40 308 1.0 3.0 0.00 0.00 0.00 85 1029.3
20200331021012 40 308 1.0 3.0 0.00 0.00 0.00 85 1029.3
20200331020605 40 307 1.0 3.0 0.00 0.00 0.00 85 1029.3
20200331020512 40 307 1.0 3.0 0.00 0.00 0.00 85 1029.3
20200331020406 40 307 1.0 3.0 0.00 0.00 0.00 85 1029.3
20200331020305 40 310 1.0 3.0 0.00 0.00 0.00 85 1029.3
20200331020012 40 315 1.0 3.0 0.00 0.00 0.00 85 1029.4
20200331015605 40 333 0.0 2.0 0.00 0.00 0.00 85 1029.3
20200331015205 40 0 0.0 2.0 0.00 0.00 0.00 85 1029.4
20200331015105 40 0 0.0 2.0 0.00 0.00 0.00 84 1029.4
20200331015013 40 0 0.0 2.0 0.00 0.00 0.00 84 1029.3
20200331014605 40 0 0.0 1.0 0.00 0.00 0.00 84 1029.4
20200331014206 40 16 0.0 3.0 0.00 0.00 0.00 84 1029.5
20200331014105 40 17 0.0 3.0 0.00 0.00 0.00 84 1029.4
20200331014013 40 20 0.0 3.0 0.00 0.00 0.00 84 1029.4
20200331013805 40 20 1.0 3.0 0.00 0.00 0.00 84 1029.4
20200331013706 40 22 1.0 3.0 0.00 0.00 0.00 84 1029.4
20200331013605 40 20 1.0 3.0 0.00 0.00 0.00 84 1029.4
20200331013405 40 21 1.0 3.0 0.00 0.00 0.00 84 1029.5
20200331013205 40 32 1.0 2.0 0.00 0.00 0.00 85 1029.5
20200331013105 40 37 1.0 2.0 0.00 0.00 0.00 84 1029.5
20200331013013 40 37 1.0 2.0 0.00 0.00 0.00 84 1029.5
20200331012805 40 35 1.0 2.0 0.00 0.00 0.00 85 1029.5
20200331012705 40 32 1.0 2.0 0.00 0.00 0.00 85 1029.5
20200331012405 40 8 1.0 2.0 0.00 0.00 0.00 85 1029.6
20200331012105 39 321 1.0 2.0 0.00 0.00 0.00 85 1029.5
20200331012014 39 313 1.0 2.0 0.00 0.00 0.00 85 1029.5
20200331011512 39 324 1.0 3.0 0.00 0.00 0.00 85 1029.5
20200331011406 39 324 1.0 3.0 0.00 0.00 0.00 85 1029.5
20200331011020 39 323 2.0 3.0 0.00 0.00 0.00 85 1029.5
20200331010905 39 322 2.0 3.0 0.00 0.00 0.00 85 1029.5
20200331010805 39 322 2.0 3.0 0.00 0.00 0.00 85 1029.5
20200331010306 39 321 1.0 3.0 0.00 0.00 0.00 85 1029.6
20200331010205 39 322 1.0 3.0 0.00 0.00 0.00 85 1029.6
20200331010105 39 321 1.0 3.0 0.00 0.00 0.00 85 1029.6
20200331005905 39 322 1.0 3.0 0.00 0.00 0.00 85 1029.6
20200331005808 38 323 1.0 3.0 0.00 0.00 0.00 85 1029.6
20200331005705 38 321 1.0 3.0 0.00 0.00 0.00 85 1029.6
20200331005605 38 319 1.0 3.0 0.00 0.00 0.00 85 1029.6
20200331005511 38 320 1.0 3.0 0.00 0.00 0.00 85 1029.6
20200331005305 38 324 1.0 3.0 0.00 0.00 0.00 85 1029.6
20200331005205 38 324 1.0 3.0 0.00 0.00 0.00 85 1029.6
20200331005105 38 324 1.0 3.0 0.00 0.00 0.00 84 1029.6
20200331005016 38 322 1.0 3.0 0.00 0.00 0.00 84 1029.6
20200331004905 38 322 1.0 3.0 0.00 0.00 0.00 84 1029.6
20200331004805 38 322 1.0 3.0 0.00 0.00 0.00 84 1029.6
20200331004705 38 322 0.0 3.0 0.00 0.00 0.00 84 1029.6
20200331004405 38 319 0.0 3.0 0.00 0.00 0.00 84 1029.6
20200331004305 38 317 0.0 3.0 0.00 0.00 0.00 84 1029.6
20200331003909 38 0 0.0 2.0 0.00 0.00 0.00 83 1029.5
20200331003205 38 313 0.0 2.0 0.00 0.00 0.00 83 1029.6
20200331003011 38 313 0.0 2.0 0.00 0.00 0.00 83 1029.6
20200331002705 38 323 1.0 2.0 0.00 0.00 0.00 82 1029.6
20200331002514 38 323 1.0 2.0 0.00 0.00 0.00 82 1029.6
20200331002406 38 323 1.0 2.0 0.00 0.00 0.00 82 1029.5
20200331002306 38 323 1.0 2.0 0.00 0.00 0.00 82 1029.5
20200331002206 38 322 1.0 2.0 0.00 0.00 0.00 82 1029.6
20200331001907 38 322 1.0 3.0 0.00 0.00 0.00 82 1029.5
20200331001805 38 322 1.0 3.0 0.00 0.00 0.00 82 1029.5
20200331001513 38 322 1.0 3.0 0.00 0.00 0.00 81 1029.5
20200331001405 39 323 1.0 3.0 0.00 0.00 0.00 81 1029.5
20200331001305 39 323 1.0 3.0 0.00 0.00 0.00 81 1029.5
20200331001011 39 321 1.0 2.0 0.00 0.00 0.00 81 1029.5
20200331000705 39 320 1.0 3.0 0.00 0.00 0.00 80 1029.5
20200331000512 39 320 1.0 3.0 0.00 0.00 0.00 81 1029.5
20200331000105 39 320 1.0 3.0 0.00 0.00 0.00 80 1029.5
20200331000013 40 320 1.0 3.0 0.00 0.00 0.00 80 1029.5
20200330235906 40 320 1.0 3.0 0.00 0.00 0.00 80 1029.5
20200330235805 40 320 1.0 3.0 0.00 0.00 0.00 79 1029.5
20200330235606 40 320 1.0 3.0 0.00 0.00 0.00 79 1029.4
20200330235514 40 320 1.0 3.0 0.00 0.00 0.00 79 1029.5
20200330235405 40 319 1.0 3.0 0.00 0.00 0.00 79 1029.5
20200330235306 40 318 1.0 3.0 0.00 0.00 0.00 79 1029.5
20200330234652 40 319 0.0 3.0 0.00 0.00 0.00 78 1029.7
20200330233212 40 324 1.0 4.0 0.00 0.00 0.00 78 1029.7
20200330231603 41 337 1.0 5.0 0.00 0.00 0.00 77 1029.4
20200330231513 41 336 1.0 5.0 0.00 0.00 0.00 77 1029.4
20200330231302 41 334 1.0 5.0 0.00 0.00 0.00 77 1029.4
20200330231202 41 337 1.0 5.0 0.00 0.00 0.00 77 1029.4
20200330231012 41 337 1.0 5.0 0.00 0.00 0.00 76 1029.4
20200330230804 41 340 1.0 5.0 0.00 0.00 0.00 76 1029.4
20200330230703 41 338 2.0 6.0 0.00 0.00 0.00 76 1029.4
20200330230603 41 340 2.0 6.0 0.00 0.00 0.00 76 1029.4
20200330230512 41 340 2.0 6.0 0.00 0.00 0.00 76 1029.4
20200330230403 41 339 2.0 6.0 0.00 0.00 0.00 76 1029.3
20200330230302 41 338 2.0 6.0 0.00 0.00 0.00 76 1029.3
20200330230105 41 334 2.0 6.0 0.00 0.00 0.00 75 1029.4
20200330225803 41 334 1.0 6.0 0.00 0.00 0.00 75 1029.4
20200330225510 41 336 1.0 4.0 0.00 0.00 0.00 75 1029.4
20200330225104 41 337 2.0 4.0 0.00 0.00 0.00 75 1029.4
20200330225024 41 336 2.0 4.0 0.00 0.00 0.00 74 1029.4
20200330224903 41 335 2.0 6.0 0.00 0.00 0.00 74 1029.4
20200330224602 41 339 2.0 6.0 0.00 0.00 0.00 74 1029.5
20200330224403 41 336 1.0 6.0 0.00 0.00 0.00 74 1029.5
20200330224302 41 338 1.0 6.0 0.00 0.00 0.00 74 1029.5
20200330224254 41 338 1.0 6.0 0.00 0.00 0.00 74 1029.5
20200330223902 41 338 1.0 5.0 0.00 0.00 0.00 74 1029.5
20200330223803 41 340 1.0 4.0 0.00 0.00 0.00 74 1029.5
20200330223011 41 345 2.0 3.0 0.00 0.00 0.00 73 1029.5
20200330222703 42 340 2.0 3.0 0.00 0.00 0.00 73 1029.5
20200330222603 42 341 2.0 3.0 0.00 0.00 0.00 73 1029.5
20200330222008 42 342 1.0 4.0 0.00 0.00 0.00 72 1029.5
20200330221803 42 349 1.0 4.0 0.00 0.00 0.00 72 1029.6
20200330221702 42 352 1.0 4.0 0.00 0.00 0.00 72 1029.6
20200330221603 42 354 1.0 4.0 0.00 0.00 0.00 72 1029.6
20200330221509 42 1 1.0 4.0 0.00 0.00 0.00 72 1029.6
20200330221203 42 357 1.0 4.0 0.00 0.00 0.00 72 1029.6
20200330221102 42 357 1.0 4.0 0.00 0.00 0.00 72 1029.6
20200330221009 42 353 1.0 4.0 0.00 0.00 0.00 72 1029.6
20200330220903 42 349 1.0 4.0 0.00 0.00 0.00 72 1029.6
20200330220802 42 344 2.0 4.0 0.00 0.00 0.00 72 1029.5
20200330220702 42 344 2.0 4.0 0.00 0.00 0.00 72 1029.6
20200330220202 42 4 2.0 5.0 0.00 0.00 0.00 72 1029.5
20200330220103 42 7 2.0 5.0 0.00 0.00 0.00 72 1029.5
20200330220010 42 9 2.0 5.0 0.00 0.00 0.00 72 1029.5
20200330215902 42 16 2.0 5.0 0.00 0.00 0.00 72 1029.5
20200330215602 42 24 2.0 5.0 0.00 0.00 0.00 71 1029.5
20200330215509 43 23 2.0 4.0 0.00 0.00 0.00 71 1029.5
20200330215403 43 29 2.0 4.0 0.00 0.00 0.00 71 1029.6
20200330215302 43 29 2.0 7.0 0.00 0.00 0.00 71 1029.6
20200330215203 43 29 2.0 7.0 0.00 0.00 0.00 71 1029.6
20200330215008 43 33 2.0 7.0 0.00 0.00 0.00 71 1029.6
20200330214702 43 32 2.0 7.0 0.00 0.00 0.00 71 1029.6
20200330214603 43 31 2.0 7.0 0.00 0.00 0.00 71 1029.6
20200330214509 43 30 2.0 7.0 0.00 0.00 0.00 71 1029.6
20200330214402 43 29 2.0 7.0 0.00 0.00 0.00 71 1029.6
20200330214302 43 30 2.0 6.0 0.00 0.00 0.00 71 1029.6
20200330214202 43 29 2.0 6.0 0.00 0.00 0.00 71 1029.6
20200330214009 43 27 2.0 5.0 0.00 0.00 0.00 71 1029.6
20200330213509 43 27 2.0 5.0 0.00 0.00 0.00 71 1029.6
20200330213303 43 26 1.0 5.0 0.00 0.00 0.00 70 1029.6
20200330213202 43 26 1.0 5.0 0.00 0.00 0.00 70 1029.6
20200330212903 43 22 1.0 5.0 0.00 0.00 0.00 70 1029.6
20200330212802 43 24 1.0 5.0 0.00 0.00 0.00 70 1029.6
20200330212602 43 19 1.0 4.0 0.00 0.00 0.00 70 1029.6
20200330212509 44 11 1.0 4.0 0.00 0.00 0.00 70 1029.7
20200330212403 44 9 1.0 4.0 0.00 0.00 0.00 70 1029.6
20200330212302 44 4 1.0 4.0 0.00 0.00 0.00 70 1029.6
20200330212203 44 7 1.0 4.0 0.00 0.00 0.00 70 1029.6
20200330212009 44 4 1.0 4.0 0.00 0.00 0.00 69 1029.6
20200330211802 44 14 2.0 4.0 0.00 0.00 0.00 69 1029.6
20200330211510 44 15 1.0 4.0 0.00 0.00 0.00 69 1029.6
20200330211102 44 357 1.0 4.0 0.00 0.00 0.00 69 1029.6
20200330210902 44 351 1.0 4.0 0.00 0.00 0.00 68 1029.6
20200330210603 44 342 2.0 5.0 0.00 0.00 0.00 68 1029.6
20200330210509 44 344 2.0 5.0 0.00 0.00 0.00 68 1029.7
20200330210103 45 6 2.0 5.0 0.00 0.00 0.00 68 1029.7
20200330205903 45 9 2.0 5.0 0.00 0.00 0.00 68 1029.7
20200330205702 45 9 2.0 5.0 0.00 0.00 0.00 68 1029.7
20200330205604 45 3 2.0 4.0 0.00 0.00 0.00 67 1029.7
20200330205509 45 4 2.0 4.0 0.00 0.00 0.00 67 1029.7
20200330205402 45 5 2.0 6.0 0.00 0.00 0.00 67 1029.7
20200330205103 45 353 2.0 6.0 0.00 0.00 0.00 67 1029.7
20200330205009 45 354 2.0 6.0 0.00 0.00 0.00 67 1029.7
20200330204903 45 353 2.0 6.0 0.00 0.00 0.00 67 1029.7
20200330204703 45 356 2.0 6.0 0.00 0.00 0.00 67 1029.7
20200330204602 45 356 2.0 6.0 0.00 0.00 0.00 67 1029.7
20200330204509 46 5 2.0 6.0 0.00 0.00 0.00 67 1029.7
20200330204302 46 5 2.0 5.0 0.00 0.00 0.00 67 1029.7
20200330204203 46 3 2.0 5.0 0.00 0.00 0.00 67 1029.7
20200330204102 46 2 2.0 5.0 0.00 0.00 0.00 66 1029.7
20200330203902 46 3 2.0 5.0 0.00 0.00 0.00 66 1029.7
20200330203802 46 358 2.0 5.0 0.00 0.00 0.00 66 1029.7
20200330203603 46 359 2.0 5.0 0.00 0.00 0.00 66 1029.7
20200330203102 46 355 3.0 8.0 0.00 0.00 0.00 66 1029.7
20200330202802 46 357 3.0 8.0 0.00 0.00 0.00 65 1029.7
20200330202703 46 2 3.0 8.0 0.00 0.00 0.00 65 1029.6
20200330202602 46 1 3.0 8.0 0.00 0.00 0.00 65 1029.6
20200330202510 46 8 3.0 8.0 0.00 0.00 0.00 65 1029.6
20200330202402 46 6 3.0 5.0 0.00 0.00 0.00 65 1029.6
20200330202302 46 6 3.0 6.0 0.00 0.00 0.00 65 1029.6
20200330202103 46 7 3.0 9.0 0.00 0.00 0.00 65 1029.6
20200330201603 47 25 4.0 9.0 0.00 0.00 0.00 64 1029.6
20200330201510 47 24 4.0 9.0 0.00 0.00 0.00 64 1029.6
20200330201202 47 33 4.0 11.0 0.00 0.00 0.00 64 1029.6
20200330201014 47 36 4.0 11.0 0.00 0.00 0.00 64 1029.5
20200330200802 47 40 3.0 11.0 0.00 0.00 0.00 64 1029.6
20200330200702 47 43 3.0 11.0 0.00 0.00 0.00 64 1029.5
20200330200602 47 39 3.0 11.0 0.00 0.00 0.00 64 1029.5
20200330200509 47 38 3.0 11.0 0.00 0.00 0.00 64 1029.5
20200330200303 47 37 3.0 10.0 0.00 0.00 0.00 64 1029.6
20200330195902 47 34 4.0 11.0 0.00 0.00 0.00 64 1029.6
20200330195803 47 30 4.0 11.0 0.00 0.00 0.00 64 1029.6
20200330195703 47 25 4.0 11.0 0.00 0.00 0.00 64 1029.6
20200330195509 47 31 3.0 11.0 0.00 0.00 0.00 64 1029.6
20200330195402 47 30 3.0 11.0 0.00 0.00 0.00 64 1029.6
20200330195202 47 32 3.0 11.0 0.00 0.00 0.00 64 1029.6
20200330195103 47 31 3.0 8.0 0.00 0.00 0.00 64 1029.6
20200330195009 47 31 3.0 9.0 0.00 0.00 0.00 65 1029.6
20200330194902 47 31 3.0 9.0 0.00 0.00 0.00 65 1029.6
20200330194509 47 42 3.0 9.0 0.00 0.00 0.00 65 1029.6
20200330194302 47 44 3.0 9.0 0.00 0.00 0.00 65 1029.6
20200330194203 47 44 4.0 9.0 0.00 0.00 0.00 65 1029.6
20200330194102 47 43 4.0 10.0 0.00 0.00 0.00 65 1029.6
20200330194011 47 42 4.0 13.0 0.00 0.00 0.00 65 1029.6
20200330193903 47 42 4.0 13.0 0.00 0.00 0.00 65 1029.6
20200330193802 47 41 3.0 13.0 0.00 0.00 0.00 65 1029.6
20200330193202 47 29 3.0 13.0 0.00 0.00 0.00 65 1029.6
20200330193103 47 30 3.0 13.0 0.00 0.00 0.00 65 1029.6
20200330193010 47 33 3.0 11.0 0.00 0.00 0.00 65 1029.6
20200330192202 47 43 3.0 8.0 0.00 0.00 0.00 65 1029.5
20200330192008 47 42 2.0 7.0 0.00 0.00 0.00 66 1029.5
20200330191802 47 44 2.0 7.0 0.00 0.00 0.00 66 1029.4
20200330191703 47 42 2.0 6.0 0.00 0.00 0.00 66 1029.4
20200330191402 47 36 1.0 6.0 0.00 0.00 0.00 66 1029.4
20200330191103 47 29 1.0 6.0 0.00 0.00 0.00 66 1029.4
20200330190603 47 30 1.0 6.0 0.00 0.00 0.00 66 1029.4
20200330190508 47 31 2.0 4.0 0.00 0.00 0.00 66 1029.4
20200330190402 47 32 2.0 4.0 0.00 0.00 0.00 66 1029.4
20200330190302 47 35 2.0 4.0 0.00 0.00 0.00 65 1029.4
20200330185703 48 35 2.0 5.0 0.00 0.00 0.00 65 1029.4
20200330185602 48 32 2.0 5.0 0.00 0.00 0.00 65 1029.4
20200330185509 48 35 2.0 5.0 0.00 0.00 0.00 65 1029.4
20200330185402 48 32 2.0 5.0 0.00 0.00 0.00 65 1029.4
20200330185202 48 24 2.0 5.0 0.00 0.00 0.00 65 1029.3
20200330185103 48 24 2.0 5.0 0.00 0.00 0.00 65 1029.3
20200330185009 48 26 2.0 5.0 0.00 0.00 0.00 65 1029.3
20200330184902 48 19 2.0 5.0 0.00 0.00 0.00 65 1029.3
20200330184602 48 10 2.0 4.0 0.00 0.00 0.00 65 1029.3
20200330184302 48 19 2.0 5.0 0.00 0.00 0.00 65 1029.2
20200330184245 48 20 2.0 5.0 0.00 0.00 0.00 65 1029.2
20200330183903 48 21 2.0 5.0 0.00 0.00 0.00 65 1029.2
20200330183702 48 27 2.0 7.0 0.00 0.00 0.00 65 1029.2
20200330183511 48 27 2.0 7.0 0.00 0.00 0.00 65 1029.1
20200330183302 48 20 2.0 7.0 0.00 0.00 0.00 65 1029.2
20200330183202 48 23 2.0 7.0 0.00 0.00 0.00 65 1029.1
20200330183102 48 21 2.0 7.0 0.00 0.00 0.00 65 1029.1
20200330182902 48 19 2.0 8.0 0.00 0.00 0.00 65 1029.2
20200330182803 48 11 2.0 8.0 0.00 0.00 0.00 65 1029.1
20200330182509 48 13 2.0 8.0 0.00 0.00 0.00 65 1029.1
20200330182402 48 10 2.0 8.0 0.00 0.00 0.00 65 1029.1
20200330182303 48 10 2.0 8.0 0.00 0.00 0.00 65 1029.1
20200330182102 48 9 2.0 8.0 0.00 0.00 0.00 65 1029.2
20200330182010 48 7 2.0 8.0 0.00 0.00 0.00 65 1029.2
20200330181902 48 9 2.0 5.0 0.00 0.00 0.00 65 1029.1
20200330181802 48 13 2.0 5.0 0.00 0.00 0.00 65 1029.2
20200330181702 48 18 2.0 5.0 0.00 0.00 0.00 65 1029.2
20200330181302 48 17 2.0 5.0 0.00 0.00 0.00 65 1029.1
20200330181203 48 22 2.0 5.0 0.00 0.00 0.00 65 1029.1
20200330181102 48 19 2.0 5.0 0.00 0.00 0.00 65 1029.1
20200330180803 48 25 2.0 8.0 0.00 0.00 0.00 65 1029.1
20200330180702 48 23 2.0 8.0 0.00 0.00 0.00 65 1029.1
20200330180602 48 22 2.0 8.0 0.00 0.00 0.00 65 1029.1
20200330180508 48 27 2.0 8.0 0.00 0.00 0.00 65 1029.1
20200330180302 48 26 2.0 8.0 0.00 0.00 0.00 64 1029.1
20200330180202 48 27 2.0 8.0 0.00 0.00 0.00 64 1029.1
20200330175802 48 32 2.0 6.0 0.00 0.00 0.00 64 1029.0
20200330175703 48 36 2.0 6.0 0.00 0.00 0.00 64 1029.0
20200330175509 48 33 2.0 6.0 0.00 0.00 0.00 64 1029.1
20200330175302 48 38 3.0 6.0 0.00 0.00 0.00 64 1029.0
20200330175202 49 41 3.0 7.0 0.00 0.00 0.00 64 1029.1
20200330175009 49 36 3.0 7.0 0.00 0.00 0.00 63 1029.1
20200330174902 49 36 3.0 7.0 0.00 0.00 0.00 63 1029.0
20200330174702 49 37 3.0 8.0 0.00 0.00 0.00 63 1029.0
20200330174602 49 42 3.0 8.0 0.00 0.00 0.00 63 1029.1
20200330174403 49 44 3.0 9.0 0.00 0.00 0.00 63 1029.1
20200330174009 49 48 3.0 9.0 0.00 0.00 0.00 63 1029.0
20200330173802 49 48 3.0 9.0 0.00 0.00 0.00 63 1029.0
20200330173702 49 50 3.0 9.0 0.00 0.00 0.00 63 1029.0
20200330173602 49 47 3.0 9.0 0.00 0.00 0.00 63 1029.0
20200330173302 49 43 3.0 9.0 0.00 0.00 0.00 63 1029.0
20200330173202 49 39 3.0 9.0 0.00 0.00 0.00 63 1029.0
20200330173009 49 32 3.0 9.0 0.00 0.00 0.00 63 1029.0
20200330172903 49 29 3.0 11.0 0.00 0.00 0.00 64 1029.0
20200330172802 49 29 3.0 11.0 0.00 0.00 0.00 64 1029.0
20200330172702 49 20 3.0 11.0 0.00 0.00 0.00 64 1029.0
20200330172509 49 11 3.0 11.0 0.00 0.00 0.00 64 1029.0
20200330172202 49 6 3.0 11.0 0.00 0.00 0.00 65 1029.0
20200330172103 49 357 3.0 11.0 0.00 0.00 0.00 66 1029.0
20200330172009 49 352 3.0 11.0 0.00 0.00 0.00 66 1028.9
20200330171802 49 343 3.0 8.0 0.00 0.00 0.00 66 1029.0
20200330171702 49 344 3.0 8.0 0.00 0.00 0.00 66 1029.0
20200330171602 49 343 3.0 8.0 0.00 0.00 0.00 66 1029.0
20200330171510 49 343 3.0 8.0 0.00 0.00 0.00 66 1029.0
20200330171102 49 337 3.0 8.0 0.00 0.00 0.00 67 1029.1
20200330170802 49 342 3.0 8.0 0.00 0.00 0.00 67 1029.0
20200330170702 49 341 3.0 8.0 0.00 0.00 0.00 67 1029.0
20200330170602 49 340 3.0 8.0 0.00 0.00 0.00 67 1029.0
20200330170510 49 340 3.0 8.0 0.00 0.00 0.00 67 1029.0
20200330170102 49 343 3.0 9.0 0.00 0.00 0.00 69 1029.0
20200330170010 49 338 3.0 9.0 0.00 0.00 0.00 69 1029.0
20200330165902 49 337 3.0 9.0 0.00 0.00 0.00 70 1029.0
20200330165802 49 336 3.0 9.0 0.00 0.00 0.00 70 1029.0
20200330165702 49 337 3.0 9.0 0.00 0.00 0.00 69 1029.0
20200330165602 49 337 3.0 9.0 0.00 0.00 0.00 69 1029.0
20200330165302 49 340 3.0 6.0 0.00 0.00 0.00 70 1029.0
20200330165009 49 338 3.0 10.0 0.00 0.00 0.00 69 1029.0
20200330164903 49 337 3.0 10.0 0.00 0.00 0.00 69 1029.0
20200330164802 49 338 3.0 10.0 0.00 0.00 0.00 69 1029.0
20200330164702 49 337 3.0 10.0 0.00 0.00 0.00 69 1029.1
20200330164603 49 335 3.0 10.0 0.00 0.00 0.00 70 1029.0
20200330164302 49 333 3.0 10.0 0.00 0.00 0.00 69 1029.1
20200330163602 49 329 3.0 8.0 0.00 0.00 0.00 70 1029.1
20200330163509 49 330 3.0 8.0 0.00 0.00 0.00 71 1029.1
20200330163402 49 330 3.0 8.0 0.00 0.00 0.00 71 1029.1
20200330163302 49 329 3.0 8.0 0.00 0.00 0.00 71 1029.1
20200330163102 49 329 3.0 8.0 0.00 0.00 0.00 70 1029.1
20200330162802 49 329 3.0 8.0 0.00 0.00 0.00 70 1029.1
20200330162702 49 329 3.0 9.0 0.00 0.00 0.00 70 1029.1
20200330162509 49 330 3.0 9.0 0.00 0.00 0.00 70 1029.1
20200330162402 49 331 3.0 9.0 0.00 0.00 0.00 70 1029.1
20200330162302 49 332 3.0 9.0 0.00 0.00 0.00 70 1029.1
20200330162202 49 332 3.0 9.0 0.00 0.00 0.00 70 1029.1
20200330162102 49 333 3.0 9.0 0.00 0.00 0.00 70 1029.1
20200330162009 49 334 3.0 9.0 0.00 0.00 0.00 70 1029.2
20200330161802 49 335 4.0 9.0 0.00 0.00 0.00 70 1029.2
20200330161702 48 336 4.0 6.0 0.00 0.00 0.00 70 1029.2
20200330161509 48 335 4.0 6.0 0.00 0.00 0.00 70 1029.2
20200330161404 48 335 4.0 6.0 0.00 0.00 0.00 70 1029.2
20200330161302 48 333 4.0 6.0 0.00 0.00 0.00 70 1029.2
20200330161203 48 333 4.0 8.0 0.00 0.00 0.00 70 1029.2
20200330161009 48 333 4.0 8.0 0.00 0.00 0.00 70 1029.2
20200330160903 48 333 4.0 8.0 0.00 0.00 0.00 70 1029.2
20200330160802 48 333 4.0 8.0 0.00 0.00 0.00 70 1029.2
20200330160403 48 333 4.0 9.0 0.00 0.00 0.00 70 1029.2
20200330160202 48 333 4.0 9.0 0.00 0.00 0.00 70 1029.3
20200330155902 48 333 4.0 12.0 0.00 0.00 0.00 70 1029.3
20200330155802 48 333 4.0 12.0 0.00 0.00 0.00 70 1029.3
20200330155602 48 333 4.0 12.0 0.00 0.00 0.00 70 1029.3
20200330155302 48 333 5.0 12.0 0.00 0.00 0.00 70 1029.3
20200330155202 48 333 5.0 12.0 0.00 0.00 0.00 70 1029.3
20200330155102 48 333 4.0 12.0 0.00 0.00 0.00 70 1029.3
20200330155009 48 332 5.0 12.0 0.00 0.00 0.00 70 1029.3
20200330154802 48 333 5.0 10.0 0.00 0.00 0.00 70 1029.3
20200330154602 48 331 4.0 10.0 0.00 0.00 0.00 70 1029.3
20200330154509 48 332 4.0 10.0 0.00 0.00 0.00 70 1029.3
20200330154102 48 332 4.0 9.0 0.00 0.00 0.00 70 1029.3
20200330154010 48 332 4.0 9.0 0.00 0.00 0.00 70 1029.3
20200330153902 48 332 4.0 9.0 0.00 0.00 0.00 70 1029.4
20200330153604 48 332 4.0 9.0 0.00 0.00 0.00 71 1029.4
20200330153509 48 332 4.0 9.0 0.00 0.00 0.00 71 1029.4
20200330153202 48 332 4.0 9.0 0.00 0.00 0.00 70 1029.4
20200330153009 48 333 4.0 9.0 0.00 0.00 0.00 70 1029.4
20200330152903 48 332 4.0 9.0 0.00 0.00 0.00 70 1029.5
20200330152802 48 332 4.0 9.0 0.00 0.00 0.00 70 1029.5
20200330152703 49 332 4.0 9.0 0.00 0.00 0.00 70 1029.5
20200330152602 49 333 5.0 9.0 0.00 0.00 0.00 69 1029.5
20200330152509 49 333 5.0 9.0 0.00 0.00 0.00 70 1029.5
20200330152403 49 333 5.0 9.0 0.00 0.00 0.00 69 1029.5
20200330152302 49 333 5.0 10.0 0.00 0.00 0.00 69 1029.5
20200330152202 49 334 5.0 10.0 0.00 0.00 0.00 69 1029.5
20200330151903 49 337 5.0 10.0 0.00 0.00 0.00 68 1029.6
20200330151802 49 339 5.0 10.0 0.00 0.00 0.00 68 1029.6
20200330151509 49 341 4.0 10.0 0.00 0.00 0.00 67 1029.7
20200330151403 49 342 4.0 10.0 0.00 0.00 0.00 66 1029.6
20200330151202 49 340 4.0 10.0 0.00 0.00 0.00 66 1029.7
20200330151102 49 340 4.0 10.0 0.00 0.00 0.00 67 1029.6
20200330150702 49 335 3.0 10.0 0.00 0.00 0.00 67 1029.6
20200330150603 49 335 3.0 10.0 0.00 0.00 0.00 68 1029.6
20200330150402 49 333 3.0 10.0 0.00 0.00 0.00 68 1029.7
20200330150202 49 336 3.0 10.0 0.00 0.00 0.00 68 1029.7
20200330150102 49 336 3.0 10.0 0.00 0.00 0.00 69 1029.7
20200330150009 49 337 3.0 10.0 0.00 0.00 0.00 69 1029.7
20200330145902 49 339 4.0 10.0 0.00 0.00 0.00 69 1029.7
20200330145802 49 338 4.0 10.0 0.00 0.00 0.00 69 1029.7
20200330145702 49 338 4.0 10.0 0.00 0.00 0.00 69 1029.7
20200330145602 49 338 4.0 10.0 0.00 0.00 0.00 68 1029.7
20200330145402 49 338 4.0 10.0 0.00 0.00 0.00 68 1029.8
20200330145303 49 336 4.0 10.0 0.00 0.00 0.00 68 1029.8
20200330145202 49 335 4.0 9.0 0.00 0.00 0.00 68 1029.8
20200330145009 49 336 3.0 10.0 0.00 0.00 0.00 68 1029.7
20200330144902 49 335 3.0 10.0 0.00 0.00 0.00 68 1029.8
20200330144702 49 336 3.0 10.0 0.00 0.00 0.00 68 1029.7
20200330144509 49 339 3.0 10.0 0.00 0.00 0.00 68 1029.8
20200330144102 49 339 4.0 10.0 0.00 0.00 0.00 68 1029.7
20200330144010 49 337 4.0 10.0 0.00 0.00 0.00 68 1029.7
20200330143602 49 333 4.0 10.0 0.00 0.00 0.00 68 1029.8
20200330143402 49 334 4.0 10.0 0.00 0.00 0.00 68 1029.7
20200330143202 49 334 4.0 9.0 0.00 0.00 0.00 69 1029.8
20200330143013 48 332 4.0 10.0 0.00 0.00 0.00 69 1029.8
20200330142602 48 333 4.0 10.0 0.00 0.00 0.00 70 1029.9
20200330142509 48 333 4.0 10.0 0.00 0.00 0.00 70 1029.9
20200330142102 48 332 4.0 10.0 0.00 0.00 0.00 71 1029.9
20200330141902 48 332 4.0 10.0 0.00 0.00 0.00 71 1029.9
20200330141602 48 332 4.0 10.0 0.00 0.00 0.00 71 1029.9
20200330141509 48 333 4.0 10.0 0.00 0.00 0.00 71 1030.0
20200330141402 48 333 4.0 10.0 0.00 0.00 0.00 70 1030.0
20200330141303 48 331 4.0 10.0 0.00 0.00 0.00 71 1030.0
20200330141102 48 332 4.0 10.0 0.00 0.00 0.00 72 1030.0
20200330140902 48 332 4.0 10.0 0.00 0.00 0.00 72 1030.0
20200330140802 48 332 4.0 10.0 0.00 0.00 0.00 71 1030.0
20200330140703 48 331 4.0 10.0 0.00 0.00 0.00 72 1030.0
20200330140402 48 330 4.0 10.0 0.00 0.00 0.00 71 1030.0
20200330140302 48 330 4.0 10.0 0.00 0.00 0.00 71 1030.0
20200330140202 48 330 4.0 9.0 0.00 0.00 0.00 71 1030.0
20200330140009 48 329 4.0 9.0 0.00 0.00 0.00 71 1030.0
20200330135902 48 329 4.0 9.0 0.00 0.00 0.00 71 1030.0
20200330135802 48 331 4.0 9.0 0.00 0.00 0.00 71 1030.0
20200330135702 48 332 4.0 9.0 0.00 0.00 0.00 71 1030.1
20200330135603 48 331 4.0 9.0 0.00 0.00 0.00 71 1030.0
20200330135509 48 330 4.0 9.0 0.00 0.00 0.00 71 1030.1
20200330135403 48 330 4.0 9.0 0.00 0.00 0.00 70 1030.0
20200330135302 48 331 4.0 9.0 0.00 0.00 0.00 70 1030.1
20200330135102 48 333 4.0 8.0 0.00 0.00 0.00 70 1030.1
20200330134602 48 338 3.0 10.0 0.00 0.00 0.00 69 1030.2
20200330134402 48 346 2.0 10.0 0.00 0.00 0.00 69 1030.2
20200330134302 48 346 2.0 10.0 0.00 0.00 0.00 69 1030.2
20200330134009 48 348 2.0 6.0 0.00 0.00 0.00 69 1030.2
20200330133902 48 352 2.0 6.0 0.00 0.00 0.00 68 1030.3
20200330133702 48 355 2.0 6.0 0.00 0.00 0.00 68 1030.3
20200330133603 48 355 3.0 6.0 0.00 0.00 0.00 68 1030.3
20200330133202 48 347 3.0 6.0 0.00 0.00 0.00 68 1030.3
20200330133103 48 348 3.0 6.0 0.00 0.00 0.00 68 1030.3
20200330133009 48 356 3.0 8.0 0.00 0.00 0.00 68 1030.3
20200330132902 48 357 3.0 8.0 0.00 0.00 0.00 68 1030.3
20200330132702 48 355 3.0 8.0 0.00 0.00 0.00 68 1030.3
20200330132402 48 359 3.0 8.0 0.00 0.00 0.00 67 1030.3
20200330132302 48 358 3.0 8.0 0.00 0.00 0.00 67 1030.3
20200330132202 48 357 3.0 8.0 0.00 0.00 0.00 67 1030.3
20200330132102 48 358 3.0 8.0 0.00 0.00 0.00 67 1030.4
20200330132009 48 351 3.0 8.0 0.00 0.00 0.00 67 1030.4
20200330131903 48 350 3.0 8.0 0.00 0.00 0.00 67 1030.4
20200330131802 48 352 3.0 8.0 0.00 0.00 0.00 67 1030.4
20200330131702 48 351 3.0 8.0 0.00 0.00 0.00 67 1030.4
20200330131509 48 353 3.0 5.0 0.00 0.00 0.00 66 1030.4
20200330131202 48 1 3.0 8.0 0.00 0.00 0.00 66 1030.4
20200330131102 48 353 3.0 8.0 0.00 0.00 0.00 66 1030.4
20200330130902 48 348 3.0 8.0 0.00 0.00 0.00 66 1030.4
20200330130802 48 345 3.0 8.0 0.00 0.00 0.00 66 1030.5
20200330130702 48 348 3.0 8.0 0.00 0.00 0.00 66 1030.5
20200330130602 49 350 3.0 8.0 0.00 0.00 0.00 66 1030.4
20200330130402 49 354 3.0 8.0 0.00 0.00 0.00 66 1030.5
20200330130303 49 354 3.0 8.0 0.00 0.00 0.00 66 1030.5
20200330130202 49 6 3.0 8.0 0.00 0.00 0.00 66 1030.5
20200330130103 49 14 3.0 8.0 0.00 0.00 0.00 65 1030.5
20200330130009 49 16 4.0 8.0 0.00 0.00 0.00 65 1030.5
20200330125903 49 22 4.0 7.0 0.00 0.00 0.00 65 1030.4
20200330125703 49 37 4.0 9.0 0.00 0.00 0.00 64 1030.5
20200330125603 49 37 4.0 9.0 0.00 0.00 0.00 65 1030.5
20200330125510 49 29 4.0 9.0 0.00 0.00 0.00 65 1030.5
20200330125303 49 24 4.0 9.0 0.00 0.00 0.00 65 1030.5
20200330125202 49 23 4.0 9.0 0.00 0.00 0.00 66 1030.5
20200330125102 49 22 3.0 9.0 0.00 0.00 0.00 66 1030.6
20200330124702 49 22 3.0 9.0 0.00 0.00 0.00 67 1030.6
20200330124602 49 19 3.0 9.0 0.00 0.00 0.00 67 1030.6
20200330124508 49 24 3.0 9.0 0.00 0.00 0.00 67 1030.7
20200330124403 49 22 4.0 7.0 0.00 0.00 0.00 67 1030.6
20200330124302 49 17 4.0 7.0 0.00 0.00 0.00 68 1030.7
20200330124203 49 10 4.0 6.0 0.00 0.00 0.00 68 1030.7
20200330124010 48 358 4.0 8.0 0.00 0.00 0.00 69 1030.7
20200330123802 48 346 4.0 13.0 0.00 0.00 0.00 69 1030.8
20200330123603 48 338 5.0 13.0 0.00 0.00 0.00 69 1030.8
20200330123402 48 335 5.0 13.0 0.00 0.00 0.00 69 1030.8
20200330123202 48 335 5.0 13.0 0.00 0.00 0.00 69 1030.8
20200330123102 48 334 5.0 13.0 0.00 0.00 0.00 69 1030.8
20200330122902 48 333 4.0 11.0 0.00 0.00 0.00 69 1030.8
20200330122802 48 333 4.0 9.0 0.00 0.00 0.00 69 1030.8
20200330122702 48 334 4.0 9.0 0.00 0.00 0.00 69 1030.8
20200330122603 48 336 4.0 9.0 0.00 0.00 0.00 69 1030.8
20200330122509 48 340 4.0 10.0 0.00 0.00 0.00 68 1030.8
20200330122302 48 346 4.0 10.0 0.00 0.00 0.00 69 1030.8
20200330122103 48 4 4.0 10.0 0.00 0.00 0.00 69 1030.9
20200330121902 48 28 5.0 10.0 0.00 0.00 0.00 69 1030.9
20200330121510 48 16 5.0 11.0 0.00 0.00 0.00 69 1030.9
20200330121402 48 5 5.0 11.0 0.00 0.00 0.00 69 1030.9
20200330121202 48 356 5.0 11.0 0.00 0.00 0.00 69 1031.0
20200330121010 48 347 5.0 11.0 0.00 0.00 0.00 70 1031.0
20200330120902 48 345 5.0 11.0 0.00 0.00 0.00 70 1031.0
20200330120702 48 342 5.0 11.0 0.00 0.00 0.00 70 1031.0
20200330120403 48 345 4.0 12.0 0.00 0.00 0.00 70 1031.0
20200330120202 48 343 5.0 12.0 0.00 0.00 0.00 70 1031.1
20200330120010 48 339 4.0 12.0 0.00 0.00 0.00 71 1031.1
20200330115902 48 337 4.0 12.0 0.00 0.00 0.00 70 1031.1
20200330115802 48 337 4.0 12.0 0.00 0.00 0.00 70 1031.1
20200330115403 48 337 4.0 12.0 0.00 0.00 0.00 71 1031.1
20200330115102 48 340 4.0 10.0 0.00 0.00 0.00 72 1031.2
20200330114803 47 341 4.0 10.0 0.00 0.00 0.00 73 1031.1
20200330114602 47 342 4.0 10.0 0.00 0.00 0.00 73 1031.1
20200330114510 47 342 4.0 10.0 0.00 0.00 0.00 73 1031.1
20200330114302 47 343 4.0 9.0 0.00 0.00 0.00 73 1031.2
20200330114203 47 342 4.0 9.0 0.00 0.00 0.00 73 1031.2
20200330114102 46 342 4.0 9.0 0.00 0.00 0.00 73 1031.2
20200330114013 46 343 4.0 9.0 0.00 0.00 0.00 73 1031.2
20200330113802 46 337 4.0 11.0 0.00 0.00 0.00 73 1031.2
20200330113702 46 338 4.0 11.0 0.00 0.00 0.00 73 1031.2
20200330113603 46 336 4.0 11.0 0.00 0.00 0.00 73 1031.2
20200330113510 46 336 5.0 11.0 0.00 0.00 0.00 73 1031.2
20200330113303 46 335 5.0 11.0 0.00 0.00 0.00 73 1031.2
20200330112902 46 336 5.0 11.0 0.00 0.00 0.00 73 1031.3
20200330112802 46 336 5.0 11.0 0.00 0.00 0.00 73 1031.3
20200330112703 46 336 4.0 11.0 0.00 0.00 0.00 73 1031.4
20200330112602 46 336 4.0 11.0 0.00 0.00 0.00 73 1031.3
20200330112402 46 337 4.0 11.0 0.00 0.00 0.00 72 1031.3
20200330112203 46 337 4.0 11.0 0.00 0.00 0.00 72 1031.3
20200330111903 47 346 3.0 11.0 0.00 0.00 0.00 72 1031.3
20200330111702 47 347 3.0 11.0 0.00 0.00 0.00 72 1031.3
20200330111302 47 353 4.0 8.0 0.00 0.00 0.00 72 1031.3
20200330110803 47 357 4.0 11.0 0.00 0.00 0.00 72 1031.2
20200330110702 47 1 4.0 11.0 0.00 0.00 0.00 71 1031.3
20200330105702 47 332 5.0 10.0 0.00 0.00 0.00 72 1031.3
20200330105404 47 332 6.0 12.0 0.00 0.00 0.00 73 1031.3
20200330105203 47 333 6.0 12.0 0.00 0.00 0.00 73 1031.3
20200330105102 46 334 7.0 12.0 0.00 0.00 0.00 73 1031.3
20200330104802 46 336 7.0 13.0 0.00 0.00 0.00 72 1031.3
20200330104702 46 336 7.0 13.0 0.00 0.00 0.00 72 1031.3
20200330104602 46 335 7.0 14.0 0.00 0.00 0.00 72 1031.3
20200330104403 46 336 6.0 14.0 0.00 0.00 0.00 72 1031.4
20200330104303 46 336 6.0 14.0 0.00 0.00 0.00 72 1031.4
20200330104203 46 336 6.0 14.0 0.00 0.00 0.00 72 1031.4
20200330104103 46 335 6.0 14.0 0.00 0.00 0.00 72 1031.3
20200330104010 46 335 5.0 14.0 0.00 0.00 0.00 71 1031.3
20200330103903 46 335 5.0 14.0 0.00 0.00 0.00 71 1031.4
20200330103802 46 334 5.0 14.0 0.00 0.00 0.00 71 1031.4